Home   Weather   Stellenbosch   Past weeks

Flag for South Africa Past Weather in Stellenbosch, South Africa — Yesterday and Last 2 Weeks

Now
79 °F

Sunny.


Feels Like: 79 °F
Forecast: 53 / 88 °F
Wind: 14 mph from Southeast

Location: Cape Town International Airport

Current Time: Apr 23, 2017 at 12:22:07 pm

Latest Report: Apr 23, 2017 at 11:00 am


Visibility: 10 mi

Pressure: 30.04 "Hg

Humidity: 39%

Dew Point: 52 °F

Location of StellenboschLocation

Past Weather in Stellenbosch — Graph

°F

Stellenbosch Temperature Yesterday

Maximum temperature yesterday: 82 °F (at 12:00 pm)
Minimum temperature yesterday: 54 °F (at 8:00 am)
Average temperature yesterday: 65 °F

High & Low Weather Summary for the Past Weeks

 TemperatureHumidityPressure
High88 °F (Apr 18, 2:00 pm)94% (Apr 9, 3:00 am)30.39 "Hg (Apr 9, 3:00 am)
Low50 °F (Apr 14, 5:00 am)27% (Apr 16, 1:30 pm)29.77 "Hg (Apr 12, 4:00 pm)
Average65 °F68%30.03 "Hg
* Reported Apr 8 11:00 am — Apr 23 11:00 am, Stellenbosch, Weather by CustomWeather, © 2017

Note: Actual official high and low records may vary slightly from our data, if they occured in-between our weather recording intervals... More about our weather records

Advertising

Stellenbosch Weather History for the Previous 24 Hours

Scroll right to see more
 ConditionsComfort  
Time TempWeatherWind HumidityBarometerVisibility
11:00 am
Sun, Apr 23
79 °FSunny.14 mph39%30.04 "Hg10 mi
10:20 am75 °FPassing clouds.7 mph47%30.04 "HgN/A
9:00 am68 °FSunny.10 mph56%30.04 "Hg10 mi
8:00 am63 °FSunny.13 mph73%30.01 "Hg10 mi
7:00 am59 °FClear.9 mph77%30.01 "Hg10 mi
6:00 am59 °FClear.7 mph72%30.01 "Hg10 mi
5:00 am59 °FClear.9 mph72%29.98 "Hg10 mi
4:30 am63 °FClear.14 mph68%29.98 "Hg10 mi
4:00 am54 °FClear.7 mph88%30.01 "Hg10 mi
3:00 am61 °FPassing clouds.8 mph77%29.98 "HgN/A
2:00 am61 °FClear.10 mph77%30.01 "Hg10 mi
1:00 am59 °FClear.12 mph82%30.01 "Hg10 mi
12:00 am59 °FClear.9 mph88%30.01 "Hg10 mi
11:00 pm
Sat, Apr 22
59 °FClear.6 mph82%30.04 "Hg10 mi
10:00 pm61 °FClear.8 mph83%30.04 "Hg10 mi
8:00 pm61 °FClear.10 mph83%30.04 "Hg10 mi
7:00 pm63 °FPassing clouds.9 mph83%30.01 "HgN/A
6:00 pm64 °FPassing clouds.8 mph73%30.01 "HgN/A
5:00 pm68 °FSunny.12 mph64%30.01 "Hg10 mi
4:00 pm73 °FSunny.9 mph53%30.01 "Hg10 mi
3:00 pm77 °FPassing clouds.9 mph44%30.01 "HgN/A
2:00 pm79 °FPassing clouds.10 mph37%30.01 "HgN/A
1:00 pm81 °FSunny.9 mph34%30.04 "Hg10 mi
12:00 pm82 °FPassing clouds.6 mph40%30.04 "HgN/A
Weather by CustomWeather, © 2017

See weather overviewHow to use our weather pages